Temperature
17 17 17 17 17 17 17 17 17 17 17 18 18 18 18 18 18 17 18 18 18 18 18 18 18 18 17 17 17 17 17 17 17 17 16 16 16 16 16 16 16 16 16
17 17 17 17 17 17 17 17 17 17 17 17 17 17 17 17 17 17 17 17 17 17 18 18 18 17 17 17 17 17 17 17 17 17 17 16 16 16 16 16 16 16 16
17 17 17 17 17 17 17 17 17 17 17 17 17 17 17 17 17 17 17 17 17 17 17 17 17 17 17 17 17 17 17 17 17 17 17 17 16 16 16 16 16 16 16
17 17 16 16 16 16 16 17 17 17 17 17 17 17 17 17 17 17 17 17 17 17 17 17 17 17 17 17 17 17 17 17 17 17 17 17 17 16 16 16 16 16 16
16 16 16 16 16 16 16 16 16 16 16 16 17 17 17 17 17 17 17 17 17 17 17 17 17 17 17 17 17 17 17 17 17 17 17 17 17 16 16 16 16 16 16
16 16 16 16 16 16 16 16 16 16 16 16 17 17 17 17 17 17 17 17 17 17 17 17 17 17 17 17 16 17 17 17 17 17 17 17 17 16 16 16 16 16 16
16 16 16 16 16 16 16 15 16 16 16 16 16 17 17 17 17 17 17 17 17 17 17 17 16 16 16 16 16 16 16 17 17 16 16 16 16 16 16 16 16 16 16
15 16 15 15 15 15 15 15 16 16 16 16 16 17 17 17 17 17 17 17 17 17 17 17 16 16 16 16 16 16 16 16 16 16 16 16 16 16 16 16 16 16 16
15 15 15 15 15 15 15 15 15 15 16 16 16 16 17 17 17 17 17 16 16 16 16 16 16 16 16 16 16 16 16 16 16 16 16 16 16 16 16 16 16 16 16
15 15 15 15 15 15 15 15 15 15 15 16 16 16 16 16 17 16 16 16 16 16 16 16 16 16 16 16 16 16 16 16 16 16 16 16 16 16 16 16 16 16 16
15 15 15 15 15 15 15 15 15 15 15 15 16 16 16 17 17 17 17 16 16 16 16 16 16 16 16 15 15 16 16 16 16 16 16 16 16 16 16 16 16 16 16
16 15 15 15 15 14 14 14 15 15 15 15 16 16 16 16 16 17 17 17 17 17 16 16 16 15 15 15 15 15 15 15 15 15 15 15 15 15 15 15 15 16 16
16 16 16 15 15 14 14 14 14 14 14 15 15 15 15 16 16 16 16 16 17 17 16 16 16 15 15 15 15 15 15 15 15 15 15 15 15 15 15 15 15 15 15
17 16 16 16 15 15 15 15 14 14 14 15 15 15 15 15 15 15 15 16 16 16 17 16 16 16 15 15 15 15 15 14 15 15 15 15 15 15 15 15 15 15 15
17 17 16 16 16 15 15 14 14 14 14 14 14 14 15 15 15 15 15 15 15 15 16 16 16 16 15 15 15 14 14 14 14 14 14 15 15 15 15 15 15 15 15
17 17 16 16 16 15 15 15 15 15 15 15 15 14 15 15 15 15 15 15 15 15 15 15 15 15 15 15 15 14 14 14 14 14 14 14 14 14 14 14 14 14 14
17 17 17 16 16 16 16 16 16 15 15 15 15 15 15 15 15 15 15 15 14 14 14 15 15 15 15 15 15 14 14 14 13 14 14 14 14 14 14 14 14 14 14
17 17 17 17 16 16 16 16 16 16 16 16 16 15 15 15 16 16 15 15 15 14 14 15 15 15 14 14 14 14 14 13 13 13 13 14 14 14 14 14 14 14 14
18 17 17 17 17 17 16 17 17 17 16 16 16 16 16 16 16 16 16 16 15 15 15 14 15 14 14 14 14 14 14 14 13 13 13 14 14 14 14 14 14 14 14
18 18 17 17 17 17 17 17 17 17 17 17 16 16 16 16 16 16 16 16 15 15 15 14 14 14 14 14 14 14 14 14 13 13 13 14 14 14 13 13 13 13 14
18 18 17 17 17 17 17 17 17 17 17 17 16 16 16 16 16 15 15 15 15 14 14 14 14 14 14 14 14 14 14 14 14 14 14 14 13 14 13 13 13 13 13
17 17 17 17 17 17 17 17 17 16 16 16 16 16 16 16 16 15 15 15 15 14 14 14 14 14 14 14 14 14 14 14 14 14 13 13 13 13 13 13 13 13 13
17 17 16 16 16 16 16 16 16 16 16 16 15 15 15 15 15 15 15 15 15 15 14 14 14 14 14 14 14 14 14 13 13 13 13 13 13 13 13 13 13 13 13
16 16 16 16 16 16 15 15 15 15 15 15 15 14 14 14 14 14 14 14 14 14 14 14 14 14 15 15 14 14 13 13 13 13 13 13 13 13 13 13 13 13 13
15 15 15 15 15 15 15 14 14 14 14 14 14 13 13 13 13 13 13 13 13 13 13 13 13 13 14 14 13 13 12 12 12 12 13 12 13 13 13 13 13 13 13
15 14 14 14 14 14 14 14 13 13 13 12 12 12 12 12 12 12 12 12 12 13 13 13 13 13 13 13 13 12 12 11 11 11 12 12 13 13 12 13 13 13 13
Wind_Speed
3 3 2 1 2 1 2 2 2 1 1 1 3 1 2 3 3 5 10 13 14 13 12 12 11 11 11 10 10 10 9 8 9 9 8 8 8 8 8 7 7 7 7
5 2 1 0 1 3 3 1 1 1 1 1 1 1 1 1 2 4 7 10 11 12 13 13 13 12 12 12 11 11 11 10 10 10 10 9 9 9 8 8 8 8 7
4 2 0 1 2 2 1 1 1 2 2 2 2 1 1 1 2 1 3 7 8 11 13 13 14 13 13 13 12 12 12 12 11 12 12 11 11 10 10 9 9 9 9
3 3 1 3 3 2 1 1 1 1 1 1 2 1 1 1 2 2 3 5 7 8 12 14 14 14 14 13 13 13 13 13 13 13 13 13 13 12 12 11 11 10 10
4 4 4 3 4 1 2 2 4 3 2 1 1 2 2 1 1 2 2 3 5 7 10 14 15 15 15 14 13 13 13 13 13 13 14 14 14 14 14 13 13 12 12
4 4 4 2 4 3 4 4 3 2 1 1 3 1 1 2 1 1 1 2 5 7 9 10 12 14 16 16 15 15 15 14 14 15 15 15 15 16 16 16 15 15 14
4 4 4 2 2 4 4 3 2 1 2 0 2 2 3 4 3 2 1 0 1 3 6 9 10 10 12 17 17 17 16 15 15 16 16 16 16 16 17 18 18 18 17
3 3 3 1 4 3 3 2 2 3 1 2 1 2 3 3 2 3 3 2 1 0 3 7 9 8 8 11 15 18 18 17 17 17 16 17 17 17 18 18 19 19 19
4 5 3 3 2 1 3 2 3 2 3 1 1 3 2 2 3 3 1 3 2 1 1 2 5 7 8 8 10 14 16 17 17 17 17 17 18 19 19 19 18 19 20
5 5 4 3 3 3 3 0 3 3 2 2 1 1 1 2 2 1 2 3 2 1 1 2 2 4 6 6 8 8 11 14 15 16 16 16 17 18 19 19 19 19 20
4 5 5 3 0 2 4 4 3 4 3 4 3 1 1 1 3 1 2 3 3 3 3 1 1 1 4 7 9 7 6 6 7 9 12 13 14 15 16 17 18 18 19
5 6 6 4 2 2 3 2 1 1 3 4 4 4 2 1 2 2 1 2 2 3 4 3 1 1 3 6 8 9 7 5 4 5 7 9 10 12 13 14 16 17 18
6 8 6 5 3 2 3 2 2 0 0 1 3 4 4 4 3 3 3 3 2 0 3 4 3 5 4 9 11 10 8 7 6 5 5 6 8 9 10 12 14 15 16
5 9 7 6 5 5 5 4 3 4 3 2 3 2 3 4 3 3 2 3 4 3 2 4 4 5 5 7 11 9 9 10 9 9 8 8 8 9 10 11 11 13 14
4 9 8 7 6 6 4 4 4 4 4 4 4 5 4 4 3 3 2 2 2 4 4 1 1 3 6 8 13 10 8 12 13 13 12 12 12 11 11 12 12 13 13
4 8 8 8 7 7 6 5 5 5 5 4 4 3 3 4 3 3 3 3 3 3 4 3 2 2 3 4 11 9 8 10 16 17 17 17 17 16 15 15 15 15 15
6 6 7 7 8 8 8 7 7 6 7 7 6 6 6 6 5 4 3 3 4 4 5 5 4 3 2 3 4 7 9 11 13 20 23 23 21 20 19 18 18 17 17
7 7 8 8 8 9 8 8 9 9 8 8 8 8 7 7 8 6 5 5 5 5 5 6 5 4 5 6 6 6 9 13 14 16 21 24 24 23 22 21 20 20 20
8 8 9 9 9 9 9 9 9 9 9 9 9 9 9 9 8 7 7 7 6 7 6 6 7 6 6 6 6 7 8 7 13 16 17 22 26 26 24 24 23 23 22
9 9 9 9 9 9 9 9 10 10 10 10 9 9 9 10 10 9 9 8 8 7 7 7 7 6 6 7 6 6 6 6 8 12 13 14 21 27 28 27 27 26 25
11 9 9 9 9 9 10 10 10 11 10 10 10 10 11 12 14 12 11 9 9 9 8 8 8 8 8 6 6 6 7 7 7 7 6 7 8 11 17 24 27 28 27
8 8 8 9 9 11 12 13 11 9 9 9 10 10 11 13 15 17 18 16 13 11 10 9 9 9 8 8 6 6 6 6 6 5 6 7 6 7 7 14 20 27 30
5 6 6 6 7 7 7 6 8 6 7 8 8 8 11 14 12 11 14 18 19 20 18 13 13 13 10 8 7 8 7 8 8 5 4 6 6 7 5 14 18 21 26
2 3 4 4 5 5 3 4 5 6 8 8 9 9 10 11 14 12 11 12 13 15 17 17 16 17 16 11 10 9 9 9 8 7 8 9 8 8 9 10 17 19 22
3 3 4 4 4 3 2 0 2 4 6 8 9 10 10 10 12 13 12 13 13 12 16 20 20 20 23 22 15 9 9 9 12 10 9 11 10 9 9 9 13 20 23
4 4 4 4 4 2 1 2 2 3 5 6 7 8 10 8 9 9 8 11 13 13 13 14 13 16 17 18 20 16 13 13 12 10 9 10 9 8 9 8 7 9 13
Wind_Direction
60 59 53 27 311 91 150 166 178 178 249 279 287 299 325 10 59 109 144 157 162 167 172 179 183 184 181 180 180 179 177 176 173 173 172 170 169 167 166 166 161 157 152
62 28 347 37 18 57 61 62 137 157 193 195 277 308 316 11 74 100 144 167 173 181 185 186 188 189 188 188 190 187 184 186 186 186 186 184 184 183 181 178 177 173 170
55 1 275 145 46 43 137 178 179 175 181 177 192 227 245 5 47 85 153 166 177 198 198 193 193 194 194 194 197 197 192 193 195 196 196 196 196 196 194 192 189 188 186
33 325 22 56 7 306 182 151 149 122 122 135 157 209 158 151 185 197 207 188 181 196 201 201 197 197 197 199 202 202 201 200 202 205 206 205 205 206 206 204 202 200 198
28 15 61 39 312 313 40 40 72 41 28 44 212 190 192 165 158 224 199 192 180 187 191 197 201 202 201 205 206 207 208 208 208 211 213 213 211 212 213 213 212 211 209
46 356 107 39 332 47 61 63 56 74 332 297 295 146 182 158 161 141 235 213 195 192 189 188 195 206 209 209 208 210 212 213 215 217 218 218 215 215 217 219 219 219 218
81 2 67 110 25 64 48 43 24 243 222 200 288 230 198 183 169 169 172 31 175 180 178 181 189 201 206 212 211 212 215 217 220 223 224 223 222 220 221 222 223 223 223
137 118 44 62 73 99 65 40 40 331 303 116 307 277 189 159 213 154 152 166 90 94 175 181 184 193 205 195 210 214 217 220 224 225 225 227 226 225 225 225 227 228 227
105 63 62 38 3 148 106 26 4 351 353 358 34 357 359 58 160 125 124 100 85 13 8 144 166 178 183 181 194 209 217 223 226 227 227 229 230 229 229 228 229 231 230
157 141 125 75 355 50 99 264 79 349 332 319 127 104 80 44 351 134 188 137 160 145 48 10 84 146 153 147 159 182 209 221 227 230 231 231 232 231 232 232 232 233 232
183 168 150 142 218 61 82 56 59 4 348 356 351 12 69 229 261 256 167 165 197 179 158 144 54 101 143 144 144 150 167 196 216 227 231 234 234 235 236 236 237 237 236
184 184 170 168 205 154 132 117 72 86 30 19 352 345 344 324 320 328 326 222 209 174 159 152 159 214 193 149 141 146 159 172 194 220 235 240 242 242 242 243 243 243 243
182 178 175 168 197 168 165 163 189 37 149 36 326 326 352 347 1 354 345 328 334 221 182 185 184 204 206 143 144 158 174 184 198 213 232 244 249 250 251 251 250 249 249
185 161 162 169 196 193 196 178 225 199 183 211 265 316 321 304 338 334 325 340 326 304 234 204 183 180 186 148 161 173 185 200 208 217 227 238 246 250 253 254 255 253 252
177 155 166 177 190 201 213 185 228 239 172 202 236 214 232 274 249 265 294 302 301 308 313 258 200 182 172 164 171 195 205 211 216 222 229 235 241 246 250 254 256 256 255
199 156 171 182 192 195 200 215 230 223 216 222 244 263 241 277 290 257 243 262 270 274 284 310 280 232 191 210 183 209 236 232 224 229 233 235 237 240 244 248 251 253 254
192 181 185 192 198 201 198 203 230 235 214 220 233 232 225 242 273 295 276 244 238 242 258 273 276 276 200 217 200 226 253 250 237 236 236 235 234 236 240 243 245 248 250
202 197 198 204 209 209 204 204 217 233 229 224 229 234 231 230 222 237 260 270 259 248 248 266 274 276 257 226 217 221 245 259 258 254 241 233 232 233 236 239 242 244 247
206 206 203 209 214 216 209 210 215 226 233 233 230 230 232 234 234 230 229 241 250 253 232 240 251 245 244 235 228 230 237 243 258 266 251 233 231 232 234 237 240 242 244
206 212 212 212 214 219 220 218 218 222 229 235 236 235 234 231 232 232 238 237 243 254 258 254 254 250 245 235 219 221 239 235 244 255 255 236 227 230 233 236 239 242 243
214 212 216 218 219 222 226 222 223 228 227 233 236 237 241 240 237 236 240 236 233 236 242 245 247 247 244 235 226 219 233 237 237 236 242 240 221 221 229 236 240 243 243
220 216 219 224 226 234 235 226 223 237 237 237 240 242 247 248 246 240 239 241 241 243 246 248 251 249 246 239 235 234 237 242 252 240 237 244 231 227 221 225 230 232 236
234 236 237 238 243 252 267 245 230 244 257 260 261 260 263 263 260 249 242 239 242 242 240 245 256 258 260 258 253 248 244 245 249 248 266 265 253 248 240 253 251 238 231
317 287 279 273 270 270 272 244 241 249 265 269 269 268 267 269 272 273 270 260 248 244 241 242 246 252 255 258 258 257 256 259 254 245 239 254 253 251 254 250 253 245 233
342 315 302 297 292 305 9 137 235 275 273 276 276 276 276 275 279 283 279 274 270 262 252 243 234 237 239 243 245 254 252 252 256 249 228 237 242 241 240 239 241 240 232
343 328 324 317 307 307 71 139 190 289 295 298 298 294 289 299 313 318 298 287 279 273 273 272 258 248 246 246 238 236 243 248 253 254 237 235 239 236 244 236 230 231 229
Height
1559 1559 1560 1561 1562 1563 1563 1564 1565 1566 1567 1568 1569 1570 1571 1573 1574 1574 1575 1577 1578 1580 1581 1583 1585 1586 1588 1590 1592 1593 1595 1597 1598 1600 1601 1602 1603 1604 1606 1607 1608 1609 1609
1557 1558 1559 1560 1561 1562 1562 1563 1564 1565 1566 1567 1568 1569 1570 1572 1573 1574 1575 1576 1578 1579 1581 1582 1584 1585 1587 1589 1591 1592 1594 1596 1597 1599 1600 1602 1603 1604 1605 1606 1608 1608 1609
1556 1557 1558 1559 1560 1561 1562 1563 1564 1564 1565 1566 1567 1568 1570 1571 1572 1573 1574 1575 1576 1578 1580 1581 1583 1584 1586 1588 1589 1591 1593 1594 1596 1598 1599 1601 1602 1603 1604 1606 1607 1608 1609
1555 1556 1558 1558 1559 1561 1562 1563 1563 1564 1565 1566 1567 1568 1569 1570 1571 1571 1572 1573 1575 1577 1578 1580 1581 1582 1584 1585 1587 1589 1591 1593 1595 1596 1598 1599 1601 1602 1603 1605 1606 1607 1608
1555 1556 1556 1557 1559 1560 1561 1562 1562 1563 1564 1565 1566 1567 1568 1569 1570 1571 1572 1572 1573 1575 1576 1577 1579 1580 1581 1583 1585 1587 1588 1590 1592 1594 1596 1598 1599 1600 1602 1603 1604 1606 1607
1555 1555 1556 1557 1558 1559 1560 1560 1561 1562 1563 1564 1566 1567 1568 1568 1569 1570 1571 1571 1572 1573 1574 1575 1577 1578 1579 1580 1582 1584 1586 1588 1590 1592 1593 1595 1597 1598 1600 1601 1602 1604 1605
1555 1555 1556 1557 1558 1558 1559 1560 1561 1562 1563 1564 1565 1566 1567 1568 1568 1569 1570 1570 1571 1572 1573 1574 1575 1576 1577 1578 1579 1581 1583 1585 1586 1589 1591 1592 1594 1596 1597 1598 1600 1601 1603
1555 1556 1556 1557 1557 1558 1558 1559 1560 1561 1563 1564 1565 1565 1566 1568 1568 1569 1569 1570 1571 1572 1572 1573 1573 1574 1575 1575 1577 1578 1580 1581 1583 1585 1587 1589 1590 1592 1594 1595 1597 1598 1600
1554 1555 1555 1556 1557 1558 1558 1559 1560 1561 1562 1564 1564 1565 1565 1566 1567 1569 1569 1570 1570 1571 1572 1572 1572 1573 1573 1574 1574 1575 1577 1578 1580 1582 1583 1585 1586 1588 1590 1591 1593 1594 1596
1554 1555 1555 1556 1557 1558 1558 1559 1559 1561 1562 1563 1564 1564 1565 1565 1567 1568 1569 1569 1570 1570 1571 1572 1572 1572 1572 1572 1573 1573 1574 1575 1577 1578 1579 1581 1582 1584 1585 1587 1589 1590 1592
1554 1555 1555 1556 1556 1557 1558 1558 1559 1560 1561 1561 1563 1564 1565 1565 1566 1568 1568 1569 1569 1569 1570 1570 1571 1571 1571 1571 1571 1572 1572 1573 1574 1575 1576 1577 1578 1579 1581 1582 1584 1585 1587
1553 1554 1555 1555 1556 1557 1557 1557 1558 1559 1560 1561 1562 1563 1564 1565 1566 1566 1567 1567 1568 1568 1568 1569 1569 1570 1570 1570 1569 1570 1570 1571 1572 1572 1573 1574 1574 1575 1576 1578 1579 1580 1581
1552 1553 1554 1554 1555 1556 1556 1557 1557 1559 1559 1560 1561 1562 1563 1564 1564 1565 1566 1566 1566 1567 1566 1567 1567 1567 1568 1568 1567 1568 1568 1568 1569 1569 1569 1570 1570 1571 1572 1573 1574 1575 1576
1552 1552 1553 1553 1554 1555 1556 1556 1557 1558 1558 1559 1560 1561 1562 1562 1563 1564 1565 1565 1565 1565 1564 1564 1564 1565 1566 1565 1565 1565 1565 1565 1565 1565 1565 1565 1566 1567 1567 1568 1569 1570 1570
1551 1550 1551 1552 1552 1553 1554 1555 1556 1557 1558 1558 1559 1560 1560 1561 1562 1562 1563 1564 1565 1564 1563 1563 1563 1563 1563 1562 1562 1562 1561 1561 1560 1560 1560 1561 1561 1561 1562 1563 1563 1564 1565
1549 1549 1549 1550 1551 1551 1552 1553 1554 1555 1556 1557 1557 1558 1558 1559 1560 1561 1561 1561 1561 1562 1561 1561 1561 1561 1560 1560 1559 1558 1558 1557 1556 1556 1556 1556 1556 1556 1556 1557 1557 1558 1559
1546 1547 1547 1548 1549 1550 1550 1551 1552 1554 1554 1555 1555 1556 1556 1556 1556 1557 1558 1558 1558 1558 1558 1557 1557 1558 1557 1556 1556 1555 1554 1552 1551 1551 1551 1551 1551 1551 1551 1551 1551 1551 1552
1542 1543 1544 1545 1546 1547 1548 1549 1550 1551 1552 1552 1552 1553 1553 1553 1553 1554 1554 1554 1554 1555 1554 1553 1553 1553 1552 1551 1551 1550 1549 1548 1547 1547 1546 1546 1546 1545 1545 1545 1545 1545 1545
1539 1540 1541 1542 1543 1544 1545 1546 1547 1548 1548 1549 1549 1549 1550 1550 1550 1550 1550 1549 1550 1550 1550 1549 1547 1548 1547 1547 1546 1544 1544 1543 1542 1541 1541 1540 1540 1540 1539 1539 1539 1538 1538
1535 1536 1537 1539 1540 1541 1542 1543 1543 1544 1544 1545 1545 1545 1545 1545 1545 1545 1545 1545 1545 1544 1544 1544 1542 1542 1541 1541 1541 1539 1538 1537 1537 1536 1536 1535 1534 1534 1533 1533 1533 1532 1532
1532 1532 1534 1535 1536 1537 1538 1538 1539 1539 1539 1540 1540 1540 1540 1540 1540 1540 1540 1539 1539 1539 1538 1537 1536 1536 1535 1535 1535 1534 1533 1532 1531 1531 1530 1530 1529 1527 1527 1527 1526 1526 1526
1528 1529 1530 1531 1532 1533 1534 1535 1535 1535 1535 1535 1535 1535 1535 1534 1534 1534 1533 1533 1534 1533 1532 1531 1530 1529 1528 1529 1529 1528 1527 1526 1525 1525 1525 1523 1523 1521 1521 1520 1520 1519 1519
1524 1525 1526 1527 1528 1529 1529 1530 1530 1530 1529 1529 1529 1529 1528 1528 1528 1527 1525 1525 1525 1525 1524 1524 1522 1521 1521 1522 1522 1521 1520 1519 1517 1517 1518 1515 1515 1514 1514 1514 1514 1513 1512
1520 1521 1521 1522 1523 1523 1523 1523 1523 1523 1522 1522 1522 1522 1521 1520 1520 1520 1518 1517 1515 1515 1514 1514 1512 1511 1512 1513 1513 1513 1512 1510 1509 1508 1509 1507 1505 1505 1505 1505 1506 1505 1505
1516 1517 1517 1518 1518 1518 1517 1517 1517 1516 1515 1515 1515 1514 1513 1512 1512 1511 1509 1507 1506 1505 1505 1504 1502 1501 1502 1502 1503 1503 1502 1501 1498 1498 1499 1498 1496 1496 1496 1496 1497 1497 1497
1513 1514 1514 1514 1513 1513 1512 1512 1511 1510 1509 1509 1508 1507 1506 1505 1504 1502 1500 1498 1496 1495 1495 1494 1493 1491 1491 1491 1492 1492 1491 1490 1488 1488 1489 1490 1488 1489 1487 1487 1488 1488 1488